TimeEST,TemperatureF,Dew PointF,Humidity,Sea Level PressureIn,VisibilityMPH,Wind Direction,Wind SpeedMPH,Gust SpeedMPH,PrecipitationIn,Events,Conditions,WindDirDegrees,DateUTC
12:53 AM,27.0,12.9,56,29.79,10.0,West,9.2,-,N/A,,Partly Cloudy,270,2013-02-21 05:53:00
1:53 AM,28.0,14.0,56,29.80,10.0,WNW,10.4,-,N/A,,Partly Cloudy,290,2013-02-21 06:53:00
2:53 AM,27.0,14.0,58,29.79,10.0,WSW,8.1,-,N/A,,Mostly Cloudy,240,2013-02-21 07:53:00
3:53 AM,27.0,14.0,58,29.80,10.0,WSW,6.9,-,N/A,,Clear,250,2013-02-21 08:53:00
4:53 AM,27.0,12.9,56,29.81,10.0,West,10.4,-,N/A,,Clear,260,2013-02-21 09:53:00
5:53 AM,26.1,12.0,55,29.81,10.0,West,12.7,20.7,N/A,,Clear,270,2013-02-21 10:53:00
6:53 AM,25.0,12.0,58,29.83,10.0,West,9.2,-,N/A,,Clear,280,2013-02-21 11:53:00
7:53 AM,25.0,12.0,58,29.83,10.0,West,9.2,18.4,N/A,,Scattered Clouds,270,2013-02-21 12:53:00
8:53 AM,27.0,10.0,49,29.82,10.0,West,21.9,29.9,N/A,,Clear,280,2013-02-21 13:53:00
9:53 AM,28.9,10.9,47,29.82,10.0,WNW,13.8,26.5,N/A,,Clear,300,2013-02-21 14:53:00
10:53 AM,30.0,10.9,45,29.82,10.0,WNW,19.6,27.6,N/A,,Clear,290,2013-02-21 15:53:00
11:53 AM,30.9,10.0,42,29.81,10.0,NW,13.8,25.3,N/A,,Clear,320,2013-02-21 16:53:00
12:53 PM,32.0,12.0,44,29.81,10.0,NW,18.4,25.3,N/A,,Mostly Cloudy,320,2013-02-21 17:53:00
1:53 PM,32.0,12.0,44,29.81,10.0,WNW,18.4,24.2,N/A,,Partly Cloudy,300,2013-02-21 18:53:00
2:53 PM,34.0,12.9,42,29.83,10.0,NW,17.3,25.3,N/A,,Clear,310,2013-02-21 19:53:00
3:53 PM,33.1,12.9,43,29.86,10.0,NW,9.2,-,N/A,,Scattered Clouds,320,2013-02-21 20:53:00
4:53 PM,30.9,12.0,46,29.91,10.0,NNW,15.0,27.6,N/A,,Overcast,330,2013-02-21 21:53:00
5:53 PM,28.9,12.0,49,29.96,10.0,NNW,13.8,26.5,N/A,,Clear,330,2013-02-21 22:53:00
6:53 PM,28.9,12.0,49,30.00,10.0,NNW,13.8,21.9,N/A,,Mostly Cloudy,330,2013-02-21 23:53:00
7:53 PM,28.0,12.0,51,30.04,10.0,NNW,10.4,23.0,N/A,,Clear,330,2013-02-22 00:53:00
8:53 PM,27.0,12.9,56,30.08,10.0,NNW,6.9,-,N/A,,Clear,330,2013-02-22 01:53:00
9:53 PM,26.1,14.0,60,30.10,10.0,NNW,10.4,-,N/A,,Clear,340,2013-02-22 02:53:00
10:53 PM,26.1,14.0,60,30.14,10.0,NW,8.1,-,N/A,,Clear,310,2013-02-22 03:53:00
11:53 PM,26.1,14.0,60,30.18,10.0,NW,10.4,-,N/A,,Clear,310,2013-02-22 04:53:00